Flag for Bahamas Weather past 2 weeks in Nassau, Bahamas

Now
86 °F

Scattered clouds.


Feels Like: 95 °F
Forecast: 81 / 88 °F
Wind: 2 mph from North

Location: Nassau Airport

Current Time: Jul 28, 2014 at 9:21:56 AM

Latest Report: Jul 28, 2014 at 9:00 AM


Visibility: N/A

Pressure: 30.10 "Hg

Humidity: 70%

Dew point: 75 °F

Location of NassauLocation

Historic Weather in Nassau — Graph

°F

Nassau temperature yesterday

Maximum temperature yesterday: 90 °F (at 11:00 AM)
Minimum temperature yesterday: 81 °F (at 7:00 AM)
Average temperature yesterday: 86 °F

Past Weeks' High & Low Weather Summary

 TemperatureHumidityPressure
High91 °F (Jul 16, 2:00 PM)100% (Jul 19, 8:00 PM)30.16 "Hg (Jul 19, 8:00 PM)
Low75 °F (Jul 20, 9:00 PM)17% (Jul 15, 6:00 PM)30.00 "Hg (Jul 15, 8:00 PM)
Average84 °F74%30.07 "Hg
* Reported Jul 13 8:00 AM — Jul 28 8:00 AM, Nassau, Weather by CustomWeather, © 2014

Note: Actual official high and low records may vary slightly from our data, if they occured in-between our weather recording intervals... More about our weather records

Advertising

Nassau weather history for previous 24 hours

 ConditionsComfort  
Time TempWeatherWind HumidityBarometerVisibility
8:00 AM
Jul 28
84 °FPassing clouds.No wind79%30.09 "HgN/A
7:00 AM81 °FPassing clouds.No wind79%30.06 "HgN/A
6:00 AM81 °FPassing clouds.No wind79%30.06 "HgN/A
5:00 AM82 °FPassing clouds.No wind79%30.06 "HgN/A
4:00 AM82 °FPassing clouds.3 mph74%30.06 "HgN/A
3:00 AM82 °FPassing clouds.No wind74%30.08 "HgN/A
2:00 AM82 °FPassing clouds.3 mph74%30.11 "HgN/A
1:00 AM82 °FPassing clouds.3 mph74%30.11 "HgN/A
12:00 AM82 °FPassing clouds.5 mph74%30.13 "HgN/A
11:00 PM
Jul 27
86 °FPassing clouds.5 mph66%30.13 "HgN/A
10:00 PM84 °FPassing clouds.6 mph62%30.11 "HgN/A
9:00 PM84 °FPassing clouds.3 mph66%30.09 "HgN/A
8:00 PM86 °FPassing clouds.5 mph66%30.09 "HgN/A
7:00 PM88 °FPassing clouds.3 mph59%30.08 "HgN/A
6:00 PM90 °FSunny.3 mph55%30.07 "Hg10 mi
5:00 PM90 °FPassing clouds.5 mph59%30.07 "HgN/A
4:00 PM88 °FPassing clouds.2 mph62%30.07 "HgN/A
3:00 PM90 °FScattered clouds.6 mph55%30.09 "HgN/A
2:00 PM90 °FPartly sunny.5 mph63%30.12 "HgN/A
1:00 PM90 °FPartly sunny.5 mph59%30.13 "HgN/A
12:00 PM90 °FScattered clouds.6 mph59%30.14 "HgN/A
11:00 AM90 °FScattered clouds.7 mph59%30.14 "HgN/A
10:00 AM86 °FScattered clouds.5 mph66%30.14 "HgN/A
9:00 AM86 °FPassing clouds.5 mph66%30.12 "HgN/A
Weather by CustomWeather, © 2014

See weather overviewHow to use our weather pages